[[{"header":{"parameterUnit":"m.s-1","parameterCategory":1,"la1":30.2991,"la2":30.254,"lo1":-89.0895,"lo2":-89.0444,"dy":0.0017,"dx":0.0017,"nx":28,"ny":28,"refTime":"2024-05-17T09:00:00:Z","depth":0,"parameterNumber":2,"parameterNumberName":"U-component_of_WINDS"},"data":[0,0,0,0,0,0,0,0,0,0,0,0,0,0,0,0,0,0,0,0,0,0,0,0,0,0,0,0,0,0,0,0,0,0,0,0,0,0,0,0,0,0,0,0,0,0,0,0,0,0,0,0,0,0,0,0,0,0,1.7382,1.7382,0,1.7436,1.7437,1.7438,1.7411,1.741,1.7409,1.7407,1.7463,1.7465,1.7468,0,0,0,0,0,0,0,0,0,0,0,0,0,1.7253,1.7255,1.7382,1.7382,1.7383,1.7436,1.7437,1.7438,1.7412,1.741,1.7408,1.7407,1.7462,1.7465,1.7468,0,0,0,0,0,0,0,0,0,0,0,0,0,1.7308,1.7256,1.7381,1.7376,1.7376,1.7436,1.7437,1.7438,1.7412,1.741,1.7408,1.7406,1.7461,1.7465,1.7469,1.7537,0,0,1.7482,1.7483,0,0,0,0,0,0,0,0,1.7305,1.7313,1.7376,1.7377,1.7377,1.7415,1.7412,1.7471,1.7413,1.7398,1.7407,1.7405,1.7449,1.7454,1.7468,1.7539,1.7542,1.7482,1.7485,1.7486,1.7488,0,0,0,0,0,0,0,1.7301,1.731,1.7403,1.7377,1.7378,1.7371,1.7376,1.7423,1.7435,1.74,1.7398,1.7405,1.7448,1.7464,1.747,1.7543,1.7482,1.7486,1.7488,1.749,1.767,1.7672,0,0,0,0,0,0,1.7298,1.7307,1.7401,1.7405,1.7335,1.7375,1.7381,1.7405,1.7434,1.7436,1.7406,1.7403,1.7458,1.7465,1.7471,1.7551,1.7486,1.749,1.7493,1.7668,1.7671,1.7673,0,0,0,0,0,0,1.7295,1.7306,1.7399,1.7356,1.7367,1.7379,1.7406,1.7407,1.7423,1.7439,1.7441,1.7421,1.7457,1.7466,1.752,1.7553,1.7492,1.7496,1.7665,1.7669,1.7672,1.7713,0,0,0,0,0,0,1.7291,1.7306,1.7332,1.7356,1.7369,1.7448,1.7408,1.741,1.7431,1.7427,1.7453,1.7456,1.7456,1.7514,1.7525,1.7558,1.7499,1.7662,1.7667,1.7671,1.7709,1.7717,1.7725,0,0,0,0,0,1.7287,1.7341,1.7333,1.7345,1.7403,1.745,1.7457,1.7457,1.7433,1.7459,1.7469,1.7455,1.7548,1.752,1.7531,1.7566,1.766,1.7665,1.767,1.7705,1.7716,1.7724,0,0,0,0,0,0,1.732,1.7345,1.7336,1.74,1.7423,1.7445,1.7478,1.7468,1.7498,1.7493,1.7491,1.7497,1.7554,1.7566,1.7534,1.7633,1.76,1.7608,1.7623,1.7633,1.7641,1.7636,1.7503,0,0,0,0,0,1.7335,1.7372,1.7391,1.7446,1.7458,1.7466,1.7487,1.7484,1.7508,1.7517,1.7532,1.7555,1.7589,1.7612,1.7644,1.771,1.7715,1.774,1.7748,1.7754,1.7761,1.7795,1.7806,1.769,1.769,1.769,0,0,1.7366,1.7384,1.7407,1.7453,1.747,1.7508,1.7475,1.7516,1.7543,1.7524,1.7576,1.7587,1.7613,1.7673,1.77,1.7685,1.7794,1.7761,1.7766,1.7769,1.7801,1.7812,1.7822,1.7693,1.7693,1.7692,0,0,1.7441,1.7459,1.7506,1.7524,1.7551,1.7556,1.7567,1.7591,1.7598,1.765,1.7636,1.7669,1.7728,1.7747,1.7764,1.7845,1.7832,1.7856,1.7898,1.7931,1.794,1.7948,1.7976,1.7986,1.7862,1.7863,1.7863,0,1.7476,1.7532,1.7531,1.7573,1.7593,1.7577,1.7624,1.7642,1.7678,1.7692,1.7674,1.7747,1.7764,1.7827,1.7847,1.7862,1.7874,1.7853,1.7939,1.7947,1.7954,1.7981,1.7991,1.7865,1.7865,1.7865,1.7864,0,1.7573,1.7612,1.7647,1.7682,1.7706,1.775,1.7755,1.778,1.7775,1.7782,1.7835,1.7854,1.7889,1.7904,1.7901,1.7967,1.7956,1.7939,1.7906,1.7968,1.7993,1.8003,1.7869,1.7868,1.7867,1.7867,0,0,1.767,1.7704,1.7717,1.7732,1.776,1.779,1.7834,1.7868,1.7889,1.7914,1.795,1.8,1.7983,1.8003,1.8001,1.8031,1.8092,1.8009,1.801,1.8023,1.8165,1.8177,1.8189,1.8084,1.8086,1.8087,1.8163,0,1.7746,1.7822,1.7822,1.7892,1.7928,1.7913,1.795,1.7971,1.7979,1.8009,1.8017,1.8053,1.8029,1.8041,1.8069,1.8079,1.812,1.8073,1.8116,1.8117,1.8109,1.8202,1.8216,1.8286,1.8172,1.8174,1.8175,0,1.7845,1.7874,1.7947,1.797,1.7984,1.8018,1.8049,1.8079,1.8103,1.8106,1.8127,1.812,1.8163,1.813,1.8189,1.8157,1.8174,1.8181,1.8184,1.8187,1.8149,1.8207,1.8308,1.8318,1.8191,1.8189,1.8188,0,1.7907,1.7964,1.8015,1.8029,1.8056,1.808,1.8093,1.8114,1.8135,1.8162,1.8175,1.8207,1.8224,1.8249,1.825,1.8226,1.8309,1.8276,1.8312,1.8312,1.8329,1.8328,1.8434,1.8343,1.8342,1.8342,1.8342,0,1.7992,1.8037,1.8043,1.8074,1.8124,1.8123,1.8172,1.8183,1.8202,1.8234,1.8223,1.8254,1.8255,1.8285,1.8287,1.8334,1.8343,1.8346,1.8345,1.8346,1.8345,1.8357,1.8351,1.8345,1.8344,1.8344,1.8343,0,1.8069,1.8075,1.8129,1.8151,1.8157,1.8193,1.8211,1.824,1.8247,1.8288,1.8297,1.8307,1.8343,1.8347,1.8389,1.839,1.8446,1.8442,1.8439,1.8437,1.8472,1.8468,1.8588,1.8603,1.8503,1.8504,1.8505,0,1.8121,1.8156,1.8181,1.8202,1.8216,1.825,1.8271,1.8272,1.8294,1.8322,1.8348,1.8382,1.841,1.8468,1.8478,1.8509,1.8504,1.8544,1.8509,1.8508,1.8503,1.8501,1.8504,1.855,1.8552,1.8552,1.8553,0,1.8214,1.8215,1.8246,1.8278,1.8303,1.8328,1.8351,1.8369,1.8372,1.8398,1.8434,1.8456,1.8498,1.8532,1.8563,1.8575,1.8564,1.8564,1.8574,1.8574,1.8571,1.8572,1.8456,1.8561,1.8561,1.856,1.8559,1.8559,1.828,1.8309,1.8331,1.8365,1.8383,1.8405,1.8433,1.8443,1.8474,1.8508,1.8507,1.8547,1.8568,1.8608,1.8623,1.8653,1.864,1.8654,1.8658,1.8661,1.8664,1.8567,1.8659,1.8659,1.8659,1.8658,1.8658,0,1.837,1.8384,1.8416,1.8449,1.8475,1.8464,1.8489,1.8512,1.8547,1.8568,1.8596,1.8637,1.867,1.8683,1.8714,1.8736,1.8732,1.8745,1.8742,1.8745,1.8675,1.8662,1.8747,1.8747,1.8747,1.8747,1.8747,1.8747,1.842,1.8469,1.8473,1.853,1.8543,1.8582,1.8597,1.8617,1.8634,1.868,1.8708,1.8716,1.8734,1.8767,1.8796,1.8799,1.881,1.8825,1.8825,1.8759,1.875,1.8741,1.873,1.8828,1.8828,1.8893,1.8893,1.8894]},{"header":{"parameterUnit":"m.s-1","parameterCategory":1,"la1":30.2991,"la2":30.254,"lo1":-89.0895,"lo2":-89.0444,"dy":0.0017,"dx":0.0017,"nx":28,"ny":28,"refTime":"2024-05-17T09:00:00:Z","depth":0,"parameterNumber":3,"parameterNumberName":"V-component_of_WINDS"},"data":[0,0,0,0,0,0,0,0,0,0,0,0,0,0,0,0,0,0,0,0,0,0,0,0,0,0,0,0,0,0,0,0,0,0,0,0,0,0,0,0,0,0,0,0,0,0,0,0,0,0,0,0,0,0,0,0,0,0,4.9244,4.9246,0,4.941,4.9412,4.9413,4.9414,4.9412,4.941,4.9408,4.9569,4.9575,4.9582,0,0,0,0,0,0,0,0,0,0,0,0,0,4.8922,4.8928,4.9244,4.9246,4.9248,4.9409,4.9412,4.9414,4.9415,4.9412,4.9409,4.9407,4.9567,4.9575,4.9582,0,0,0,0,0,0,0,0,0,0,0,0,0,4.9072,4.893,4.9244,4.9268,4.9272,4.9409,4.9412,4.9414,4.9415,4.9412,4.9409,4.9406,4.9565,4.9574,4.9583,4.9704,0,0,4.9612,4.9616,0,0,0,0,0,0,0,0,4.9063,4.9083,4.9263,4.9267,4.9272,4.9388,4.9357,4.9511,4.9416,4.9361,4.9408,4.9404,4.9511,4.9525,4.9562,4.9711,4.9718,4.9613,4.9618,4.9622,4.9625,0,0,0,0,0,0,0,4.9053,4.9076,4.9309,4.9265,4.9271,4.9269,4.9286,4.9386,4.9451,4.9365,4.9366,4.9386,4.9513,4.9553,4.9566,4.9721,4.9612,4.9621,4.9626,4.963,4.9976,4.998,0,0,0,0,0,0,4.9038,4.9068,4.9304,4.9314,4.9158,4.9277,4.9297,4.9354,4.945,4.9462,4.9388,4.9385,4.9539,4.9555,4.9572,4.972,4.9622,4.9631,4.9636,4.9973,4.9977,4.9981,0,0,0,0,0,0,4.9032,4.906,4.9298,4.9191,4.9222,4.9286,4.935,4.9359,4.9399,4.9468,4.9478,4.9418,4.9537,4.9559,4.9672,4.9725,4.9635,4.9644,4.9969,4.9974,4.9979,5.0016,0,0,0,0,0,0,4.9022,4.9057,4.9106,4.9193,4.9227,4.9397,4.9353,4.9364,4.9417,4.9414,4.9499,4.951,4.9536,4.9658,4.9681,4.9736,4.9651,4.9964,4.9971,4.9977,5.001,5.0022,5.0032,0,0,0,0,0,4.9011,4.9108,4.9108,4.9137,4.929,4.94,4.942,4.9451,4.9421,4.9469,4.9513,4.9507,4.9716,4.9669,4.9695,4.9755,4.9961,4.9969,4.9977,5.0006,5.002,5.0032,0,0,0,0,0,0,4.9023,4.912,4.9121,4.925,4.9317,4.94,4.9462,4.9465,4.954,4.9534,4.9567,4.9586,4.9699,4.9738,4.9684,4.9876,4.9834,4.9848,4.9847,4.9861,4.9872,4.986,4.9659,0,0,0,0,0,4.9041,4.9125,4.9204,4.9309,4.9344,4.9397,4.9446,4.9465,4.9535,4.9562,4.9614,4.968,4.9761,4.9813,4.9891,5.0016,5.0033,5.0069,5.008,5.0089,5.01,5.0169,5.0185,5.0008,5.0007,5.0007,0,0,4.9078,4.9141,4.9192,4.9314,4.9368,4.9452,4.9421,4.9511,4.9574,4.9575,4.9686,4.9726,4.9802,4.9922,4.9977,4.9957,5.0153,5.0099,5.0105,5.0112,5.0178,5.0195,5.021,5.0013,5.0012,5.0011,0,0,4.9189,4.9246,4.9341,4.9396,4.948,4.9515,4.9537,4.9621,4.9648,4.9761,4.9764,4.9836,4.9974,5.0028,5.0074,5.0205,5.0202,5.0229,5.0286,5.0352,5.0366,5.0379,5.0425,5.0442,5.024,5.024,5.024,0,4.9224,4.9354,4.9388,4.948,4.9532,4.954,4.9635,4.9686,4.979,4.9825,4.9802,4.9976,5.0027,5.016,5.0192,5.0228,5.0254,5.022,5.0362,5.0375,5.0387,5.0432,5.0449,5.0243,5.0243,5.0242,5.0242,0,4.9393,4.9483,4.9548,4.9652,4.9712,4.9804,4.9849,4.9905,4.9918,4.9955,5.0068,5.013,5.022,5.0253,5.0265,5.0387,5.0372,5.0355,5.0314,5.0406,5.0449,5.0466,5.0247,5.0246,5.0245,5.0244,0,0,4.9516,4.9638,4.9661,4.9708,4.9801,4.987,4.9962,5.0053,5.01,5.0171,5.0248,5.0364,5.035,5.0401,5.0419,5.0477,5.0577,5.0454,5.0456,5.0474,5.0714,5.0727,5.0746,5.0576,5.0579,5.0582,5.0708,0,4.9637,4.9805,4.9837,4.9981,5.0064,5.0072,5.0152,5.0216,5.0252,5.0326,5.0364,5.0447,5.0421,5.0452,5.051,5.0553,5.0626,5.0544,5.0646,5.0649,5.0627,5.0769,5.0782,5.0898,5.0725,5.0728,5.073,0,4.9802,4.988,5.0033,5.0115,5.0151,5.0222,5.0308,5.0379,5.0451,5.0473,5.0531,5.0543,5.0636,5.059,5.0718,5.0661,5.0704,5.0731,5.0736,5.0747,5.0695,5.0783,5.0936,5.0953,5.0756,5.0754,5.0752,0,4.9876,5.0019,5.013,5.0169,5.0268,5.0318,5.0361,5.043,5.0483,5.0557,5.0591,5.0673,5.0719,5.0781,5.0814,5.0778,5.0939,5.0896,5.0958,5.0958,5.0992,5.099,5.1154,5.102,5.1019,5.1019,5.1019,0,5.0009,5.0102,5.0165,5.0232,5.0336,5.0372,5.0473,5.0514,5.0576,5.065,5.0661,5.0729,5.0768,5.0842,5.0867,5.0969,5.0989,5.1008,5.1014,5.1007,5.1005,5.1036,5.1029,5.1024,5.1023,5.1022,5.1021,0,5.011,5.0156,5.0277,5.0361,5.0384,5.0457,5.0528,5.0592,5.0628,5.0722,5.0746,5.0801,5.0889,5.0928,5.1034,5.1051,5.1167,5.1167,5.1144,5.1146,5.1206,5.12,5.1397,5.1424,5.1271,5.1273,5.1274,0,5.0192,5.0264,5.0357,5.0409,5.0454,5.0536,5.0591,5.0628,5.0684,5.0771,5.0825,5.0913,5.0986,5.1124,5.1172,5.1254,5.1255,5.1319,5.1267,5.1259,5.1256,5.1252,5.1259,5.1328,5.1329,5.1331,5.1332,0,5.0331,5.0351,5.0431,5.0519,5.0584,5.0655,5.0723,5.0764,5.0811,5.0873,5.0964,5.102,5.113,5.1217,5.1302,5.1342,5.1345,5.1347,5.1366,5.1361,5.1345,5.1354,5.117,5.1343,5.1342,5.1341,5.134,5.134,5.0426,5.049,5.0566,5.0654,5.071,5.0774,5.084,5.0885,5.0963,5.1057,5.1073,5.117,5.1238,5.1353,5.1397,5.1471,5.1455,5.1482,5.1489,5.1496,5.1499,5.1333,5.1486,5.1486,5.1486,5.1485,5.1485,0,5.0566,5.0616,5.0697,5.0794,5.0863,5.0862,5.0937,5.0994,5.108,5.1146,5.1218,5.1321,5.1406,5.1461,5.1545,5.1594,5.1597,5.1615,5.1612,5.1621,5.1508,5.1484,5.1611,5.1611,5.1611,5.1611,5.1611,5.1611,5.0647,5.0757,5.0786,5.0922,5.097,5.1068,5.1111,5.1169,5.1222,5.1338,5.141,5.1446,5.1507,5.1596,5.1672,5.1686,5.1716,5.1735,5.1748,5.1642,5.1629,5.1616,5.1593,5.1741,5.1742,5.1854,5.1855,5.1856]}]]